QPF
0.04 0.04 0.06 0.08 0.09 0.08 0.08 0.08 0.10 0.10 0.09 0.08 0.06 0.05 0.04 0.04 0.05 0.04 0.04 0.05 0.06 0.06 0.06 0.07 0.06 0.04 0.03 0.02 0.01 0.01 0.02 0.02 0.03 0.02 0.02 0.02 0.02 0.02
0.03 0.03 0.04 0.05 0.06 0.06 0.07 0.08 0.07 0.07 0.07 0.06 0.05 0.04 0.04 0.04 0.05 0.05 0.06 0.07 0.06 0.06 0.05 0.04 0.03 0.02 0.02 0.02 0.02 0.02 0.02 0.02 0.03 0.03 0.02 0.02 0.03 0.02
0.02 0.02 0.02 0.03 0.04 0.04 0.05 0.07 0.07 0.07 0.06 0.05 0.03 0.03 0.03 0.03 0.03 0.04 0.04 0.04 0.04 0.04 0.04 0.03 0.02 0.02 0.02 0.02 0.02 0.03 0.03 0.03 0.03 0.04 0.04 0.04 0.04 0.04
0.01 0.01 0.02 0.02 0.02 0.03 0.04 0.05 0.06 0.06 0.07 0.08 0.06 0.04 0.03 0.02 0.02 0.02 0.02 0.02 0.02 0.02 0.02 0.02 0.02 0.02 0.02 0.02 0.02 0.02 0.03 0.04 0.04 0.04 0.05 0.04 0.04 0.04
0.02 0.01 0.01 0.01 0.01 0.01 0.02 0.03 0.03 0.04 0.05 0.06 0.06 0.05 0.04 0.03 0.02 0.02 0.02 0.03 0.03 0.02 0.02 0.03 0.03 0.02 0.02 0.02 0.02 0.02 0.02 0.02 0.03 0.03 0.03 0.03 0.03 0.03
0.02 0.01 0.01 0.01 0.01 0.02 0.02 0.03 0.04 0.04 0.03 0.04 0.04 0.03 0.02 0.02 0.02 0.03 0.03 0.03 0.03 0.02 0.02 0.03 0.04 0.03 0.03 0.02 0.02 0.01 0.01 0.01 0.01 0.01 0.02 0.02 0.02 0.02
0.02 0.02 0.02 0.02 0.02 0.02 0.02 0.02 0.02 0.03 0.03 0.03 0.03 0.03 0.02 0.02 0.02 0.02 0.03 0.03 0.04 0.03 0.02 0.02 0.02 0.02 0.02 0.02 0.02 0.01 0.01 0.01 0.01 0.01 0.01 0.01 0.01 0.01
0.02 0.01 0.01 0.01 0.01 0.02 0.02 0.02 0.01 0.01 0.02 0.02 0.02 0.02 0.02 0.02 0.03 0.03 0.03 0.02 0.03 0.03 0.01 0.02 0.02 0.02 0.02 0.01 0.01 0.01 0.00 0.00 0.00 0.00 0.00 0.00 0.00 0.00
0.02 0.01 0.01 0.01 0.02 0.01 0.01 0.01 0.01 0.01 0.01 0.01 0.01 0.02 0.02 0.03 0.03 0.05 0.04 0.02 0.03 0.03 0.02 0.03 0.02 0.01 0.01 0.01 0.01 0.00 0.00 0.00 0.00 0.00 0.00 0.00 0.00 0.00
0.02 0.01 0.01 0.01 0.01 0.01 0.01 0.01 0.01 0.01 0.00 0.00 0.01 0.01 0.02 0.02 0.03 0.04 0.04 0.03 0.03 0.03 0.03 0.03 0.02 0.01 0.00 0.00 0.00 0.00 0.00 0.00 0.00 0.00 0.00 0.00 0.00 0.00
0.01 0.01 0.02 0.01 0.01 0.01 0.01 0.01 0.01 0.01 0.01 0.01 0.01 0.01 0.01 0.02 0.02 0.02 0.03 0.03 0.04 0.04 0.03 0.03 0.02 0.01 0.00 0.00 0.00 0.00 0.00 0.00 0.00 0.00 0.00 0.00 0.00 0.00
0.01 0.01 0.01 0.01 0.01 0.01 0.01 0.01 0.01 0.00 0.00 0.00 0.00 0.01 0.01 0.01 0.01 0.02 0.02 0.03 0.04 0.03 0.03 0.03 0.01 0.01 0.00 0.00 0.00 0.00 0.00 0.00 0.00 0.00 0.00 0.00 0.00 0.00
0.01 0.01 0.00 0.00 0.00 0.00 0.00 0.00 0.00 0.00 0.00 0.00 0.00 0.00 0.01 0.00 0.01 0.01 0.02 0.04 0.03 0.02 0.02 0.01 0.01 0.00 0.00 0.00 0.00 0.00 0.00 0.00 0.00 0.00 0.00 0.00 0.00 0.00
0.01 0.00 0.00 0.00 0.00 0.00 0.00 0.00 0.00 0.00 0.00 0.00 0.00 0.00 0.00 0.00 0.01 0.02 0.02 0.01 0.01 0.01 0.00 0.00 0.00 0.00 0.00 0.00 0.00 0.00 0.00 0.00 0.00 0.00 0.00 0.00 0.00 0.00
0.00 0.00 0.00 0.00 0.00 0.00 0.00 0.00 0.00 0.00 0.00 0.00 0.00 0.00 0.00 0.00 0.00 0.00 0.00 0.00 0.00 0.00 0.00 0.00 0.00 0.00 0.00 0.00 0.00 0.00 0.00 0.00 0.00 0.00 0.00 0.00 0.00 0.00
0.00 0.00 0.00 0.00 0.00 0.00 0.00 0.00 0.00 0.00 0.00 0.00 0.00 0.00 0.00 0.00 0.00 0.00 0.00 0.00 0.00 0.00 0.00 0.00 0.00 0.00 0.00 0.00 0.00 0.00 0.00 0.00 0.00 0.00 0.00 0.00 0.00 0.00
0.00 0.00 0.00 0.01 0.01 0.01 0.01 0.00 0.00 0.00 0.00 0.00 0.00 0.00 0.00 0.00 0.00 0.00 0.00 0.00 0.00 0.00 0.00 0.00 0.00 0.00 0.00 0.00 0.00 0.00 0.00 0.00 0.00 0.00 0.00 0.00 0.00 0.00
0.00 0.00 0.00 0.00 0.01 0.02 0.01 0.01 0.00 0.00 0.00 0.00 0.00 0.00 0.00 0.01 0.01 0.00 0.00 0.00 0.00 0.00 0.00 0.00 0.00 0.00 0.00 0.00 0.00 0.00 0.00 0.00 0.00 0.00 0.00 0.00 0.00 0.00
0.00 0.00 0.00 0.00 0.00 0.01 0.02 0.02 0.01 0.01 0.01 0.00 0.00 0.01 0.01 0.01 0.01 0.00 0.00 0.00 0.00 0.00 0.00 0.00 0.00 0.00 0.00 0.00 0.00 0.00 0.00 0.00 0.00 0.00 0.00 0.00 0.00 0.00
0.00 0.00 0.00 0.00 0.00 0.00 0.01 0.01 0.02 0.02 0.02 0.01 0.02 0.02 0.02 0.01 0.01 0.01 0.01 0.00 0.00 0.00 0.00 0.00 0.00 0.00 0.00 0.00 0.00 0.00 0.00 0.00 0.00 0.00 0.00 0.00 0.00 0.00
0.00 0.00 0.00 0.00 0.00 0.00 0.00 0.00 0.01 0.01 0.01 0.02 0.02 0.01 0.01 0.00 0.00 0.00 0.00 0.00 0.00 0.00 0.00 0.00 0.00 0.00 0.00 0.00 0.00 0.00 0.00 0.00 0.00 0.00 0.00 0.00 0.00 0.00
0.00 0.00 0.00 0.00 0.00 0.00 0.00 0.00 0.00 0.00 0.00 0.00 0.00 0.00 0.00 0.00 0.00 0.00 0.00 0.00 0.00 0.00 0.00 0.00 0.00 0.00 0.00 0.00 0.00 0.00 0.00 0.00 0.00 0.00 0.00 0.00 0.00 0.00
0.00 0.00 0.00 0.00 0.00 0.00 0.00 0.00 0.00 0.00 0.00 0.00 0.00 0.00 0.00 0.00 0.00 0.00 0.00 0.00 0.00 0.00 0.00 0.00 0.00 0.00 0.00 0.00 0.00 0.00 0.00 0.00 0.00 0.00 0.00 0.00 0.00 0.00
MSLP
1019.64 1019.95 1020.35 1020.83 1021.39 1022.04 1022.75 1023.50 1024.26 1025.02 1025.73 1026.36 1026.89 1027.28 1027.55 1027.68 1027.71 1027.67 1027.59 1027.52 1027.48 1027.50 1027.57 1027.70 1027.86 1028.02 1028.15 1028.22 1028.23 1028.18 1028.06 1027.91 1027.74 1027.56 1027.38 1027.21 1027.04 1026.87
1019.90 1020.12 1020.41 1020.78 1021.25 1021.82 1022.47 1023.19 1023.96 1024.74 1025.50 1026.18 1026.76 1027.21 1027.51 1027.67 1027.71 1027.66 1027.56 1027.46 1027.40 1027.40 1027.47 1027.61 1027.78 1027.96 1028.12 1028.23 1028.27 1028.25 1028.16 1028.03 1027.86 1027.70 1027.53 1027.37 1027.21 1027.04
1020.25 1020.41 1020.62 1020.92 1021.30 1021.79 1022.38 1023.06 1023.80 1024.58 1025.34 1026.05 1026.65 1027.12 1027.44 1027.61 1027.65 1027.59 1027.48 1027.36 1027.27 1027.25 1027.31 1027.43 1027.59 1027.78 1027.95 1028.07 1028.13 1028.12 1028.05 1027.94 1027.79 1027.63 1027.48 1027.33 1027.19 1027.05
1020.69 1020.82 1020.99 1021.22 1021.54 1021.96 1022.49 1023.11 1023.81 1024.56 1025.30 1026.00 1026.60 1027.07 1027.39 1027.56 1027.60 1027.53 1027.40 1027.26 1027.15 1027.10 1027.13 1027.22 1027.36 1027.52 1027.67 1027.79 1027.84 1027.83 1027.76 1027.64 1027.50 1027.36 1027.22 1027.10 1026.98 1026.86
1021.20 1021.33 1021.48 1021.68 1021.96 1022.33 1022.80 1023.36 1024.00 1024.69 1025.38 1026.04 1026.62 1027.07 1027.39 1027.55 1027.58 1027.51 1027.38 1027.22 1027.09 1027.01 1026.99 1027.04 1027.13 1027.24 1027.35 1027.41 1027.43 1027.39 1027.30 1027.18 1027.03 1026.90 1026.77 1026.67 1026.58 1026.50
1021.77 1021.91 1022.07 1022.26 1022.51 1022.84 1023.26 1023.75 1024.32 1024.94 1025.57 1026.17 1026.71 1027.13 1027.43 1027.59 1027.62 1027.56 1027.42 1027.26 1027.11 1026.99 1026.93 1026.91 1026.94 1026.98 1027.00 1027.00 1026.96 1026.87 1026.74 1026.59 1026.44 1026.30 1026.19 1026.10 1026.04 1025.99
1022.36 1022.54 1022.71 1022.91 1023.15 1023.45 1023.81 1024.25 1024.74 1025.28 1025.83 1026.36 1026.84 1027.22 1027.50 1027.65 1027.69 1027.64 1027.51 1027.35 1027.19 1027.04 1026.93 1026.85 1026.79 1026.74 1026.68 1026.59 1026.47 1026.31 1026.13 1025.95 1025.77 1025.63 1025.52 1025.46 1025.42 1025.40
1022.97 1023.18 1023.37 1023.59 1023.82 1024.09 1024.41 1024.77 1025.19 1025.64 1026.11 1026.56 1026.97 1027.31 1027.56 1027.71 1027.76 1027.72 1027.61 1027.46 1027.29 1027.12 1026.96 1026.82 1026.68 1026.54 1026.39 1026.21 1026.00 1025.77 1025.54 1025.31 1025.11 1024.95 1024.85 1024.79 1024.78 1024.78
1023.57 1023.79 1024.01 1024.23 1024.46 1024.70 1024.97 1025.28 1025.62 1025.98 1026.36 1026.73 1027.07 1027.37 1027.59 1027.73 1027.78 1027.75 1027.66 1027.52 1027.35 1027.17 1026.97 1026.78 1026.57 1026.35 1026.12 1025.86 1025.58 1025.28 1025.00 1024.73 1024.51 1024.33 1024.22 1024.17 1024.16 1024.19
1024.13 1024.37 1024.59 1024.82 1025.03 1025.25 1025.48 1025.72 1025.99 1026.27 1026.56 1026.85 1027.12 1027.35 1027.54 1027.66 1027.72 1027.70 1027.63 1027.50 1027.34 1027.15 1026.93 1026.70 1026.44 1026.16 1025.86 1025.54 1025.20 1024.86 1024.53 1024.24 1023.99 1023.80 1023.68 1023.62 1023.61 1023.64
1024.64 1024.88 1025.11 1025.33 1025.53 1025.72 1025.91 1026.10 1026.29 1026.49 1026.69 1026.90 1027.10 1027.27 1027.42 1027.52 1027.56 1027.55 1027.49 1027.38 1027.22 1027.03 1026.80 1026.55 1026.26 1025.95 1025.61 1025.25 1024.88 1024.51 1024.16 1023.84 1023.58 1023.37 1023.24 1023.16 1023.15 1023.17
1025.09 1025.32 1025.55 1025.75 1025.94 1026.11 1026.26 1026.39 1026.52 1026.65 1026.77 1026.90 1027.03 1027.15 1027.24 1027.31 1027.34 1027.33 1027.27 1027.16 1027.01 1026.82 1026.60 1026.33 1026.04 1025.71 1025.35 1024.98 1024.59 1024.21 1023.85 1023.53 1023.26 1023.04 1022.88 1022.79 1022.75 1022.75
1025.48 1025.70 1025.91 1026.11 1026.28 1026.42 1026.53 1026.62 1026.70 1026.76 1026.82 1026.88 1026.94 1027.00 1027.05 1027.07 1027.08 1027.05 1026.99 1026.89 1026.74 1026.56 1026.33 1026.07 1025.78 1025.45 1025.09 1024.72 1024.34 1023.97 1023.61 1023.28 1023.00 1022.77 1022.60 1022.48 1022.41 1022.38
1025.80 1026.00 1026.20 1026.38 1026.53 1026.65 1026.74 1026.79 1026.82 1026.83 1026.84 1026.84 1026.85 1026.86 1026.86 1026.85 1026.83 1026.78 1026.70 1026.60 1026.45 1026.27 1026.05 1025.79 1025.51 1025.19 1024.84 1024.48 1024.11 1023.74 1023.40 1023.08 1022.79 1022.55 1022.35 1022.21 1022.10 1022.03
1026.04 1026.23 1026.41 1026.57 1026.70 1026.80 1026.86 1026.89 1026.89 1026.87 1026.84 1026.81 1026.77 1026.74 1026.70 1026.67 1026.61 1026.55 1026.46 1026.34 1026.19 1026.00 1025.78 1025.53 1025.24 1024.93 1024.60 1024.25 1023.89 1023.54 1023.20 1022.88 1022.59 1022.34 1022.12 1021.95 1021.80 1021.69
1026.22 1026.37 1026.53 1026.67 1026.78 1026.86 1026.91 1026.92 1026.91 1026.87 1026.82 1026.76 1026.71 1026.65 1026.59 1026.53 1026.46 1026.37 1026.27 1026.13 1025.97 1025.77 1025.55 1025.29 1025.00 1024.69 1024.36 1024.02 1023.67 1023.33 1023.00 1022.68 1022.39 1022.12 1021.89 1021.68 1021.50 1021.35
1026.31 1026.43 1026.56 1026.67 1026.76 1026.82 1026.86 1026.87 1026.85 1026.81 1026.77 1026.71 1026.65 1026.58 1026.52 1026.44 1026.36 1026.26 1026.13 1025.98 1025.80 1025.59 1025.35 1025.08 1024.79 1024.47 1024.14 1023.79 1023.45 1023.11 1022.78 1022.46 1022.17 1021.90 1021.64 1021.41 1021.20 1021.01
1026.33 1026.41 1026.50 1026.58 1026.64 1026.69 1026.72 1026.73 1026.73 1026.70 1026.67 1026.63 1026.58 1026.53 1026.46 1026.39 1026.30 1026.18 1026.04 1025.87 1025.67 1025.44 1025.18 1024.89 1024.58 1024.25 1023.91 1023.56 1023.21 1022.87 1022.54 1022.23 1021.93 1021.65 1021.39 1021.14 1020.90 1020.68
1026.28 1026.32 1026.36 1026.40 1026.45 1026.48 1026.51 1026.53 1026.55 1026.55 1026.55 1026.53 1026.51 1026.47 1026.42 1026.34 1026.25 1026.12 1025.96 1025.77 1025.55 1025.29 1025.01 1024.69 1024.36 1024.01 1023.66 1023.30 1022.95 1022.61 1022.28 1021.97 1021.68 1021.40 1021.13 1020.87 1020.62 1020.36
1026.18 1026.16 1026.16 1026.18 1026.19 1026.22 1026.26 1026.30 1026.33 1026.37 1026.40 1026.42 1026.43 1026.41 1026.37 1026.30 1026.19 1026.05 1025.88 1025.66 1025.41 1025.13 1024.81 1024.48 1024.12 1023.76 1023.39 1023.03 1022.68 1022.34 1022.02 1021.71 1021.42 1021.15 1020.88 1020.61 1020.34 1020.06
1026.02 1025.96 1025.93 1025.91 1025.91 1025.94 1025.99 1026.05 1026.12 1026.19 1026.25 1026.31 1026.34 1026.34 1026.31 1026.23 1026.12 1025.96 1025.76 1025.52 1025.24 1024.93 1024.59 1024.23 1023.86 1023.49 1023.11 1022.74 1022.39 1022.06 1021.75 1021.45 1021.17 1020.90 1020.63 1020.36 1020.08 1019.78
1025.81 1025.72 1025.66 1025.62 1025.62 1025.66 1025.72 1025.81 1025.91 1026.02 1026.12 1026.20 1026.25 1026.26 1026.23 1026.15 1026.02 1025.84 1025.62 1025.35 1025.04 1024.70 1024.34 1023.97 1023.59 1023.20 1022.83 1022.46 1022.12 1021.79 1021.49 1021.20 1020.93 1020.66 1020.39 1020.11 1019.82 1019.50
1025.54 1025.43 1025.36 1025.33 1025.33 1025.39 1025.47 1025.59 1025.73 1025.87 1026.00 1026.10 1026.17 1026.19 1026.15 1026.06 1025.91 1025.70 1025.45 1025.15 1024.82 1024.47 1024.09 1023.70 1023.31 1022.93 1022.55 1022.20 1021.86 1021.54 1021.25 1020.97 1020.70 1020.43 1020.15 1019.86 1019.55 1019.21
Thickness
5614 5615 5615 5615 5615 5614 5613 5611 5607 5601 5595 5591 5590 5589 5587 5585 5584 5583 5582 5581 5579 5577 5575 5573 5570 5567 5564 5562 5559 5556 5553 5551 5548 5545 5543 5541 5539 5537
5602 5603 5603 5603 5603 5603 5602 5601 5600 5597 5589 5584 5582 5580 5578 5576 5574 5573 5572 5571 5569 5567 5565 5562 5560 5557 5554 5551 5548 5546 5543 5540 5537 5535 5532 5530 5528 5526
5589 5590 5590 5590 5590 5590 5590 5589 5587 5586 5581 5574 5571 5570 5568 5566 5564 5563 5561 5560 5558 5557 5555 5553 5550 5548 5545 5542 5539 5536 5534 5531 5528 5525 5523 5521 5518 5516
5575 5577 5577 5578 5578 5578 5578 5577 5575 5574 5573 5567 5562 5559 5557 5555 5554 5552 5551 5550 5548 5547 5546 5544 5541 5538 5536 5534 5531 5528 5525 5522 5520 5517 5516 5513 5511 5508
5563 5564 5564 5566 5566 5565 5565 5564 5564 5563 5561 5557 5552 5548 5546 5544 5543 5542 5541 5539 5538 5537 5536 5534 5532 5530 5528 5526 5523 5520 5518 5516 5513 5511 5509 5506 5504 5501
5551 5552 5553 5554 5554 5553 5553 5552 5551 5550 5548 5545 5541 5538 5535 5533 5532 5531 5530 5528 5528 5527 5526 5525 5524 5522 5521 5519 5517 5514 5512 5509 5507 5505 5503 5501 5498 5496
5540 5541 5542 5543 5543 5542 5542 5541 5540 5538 5536 5534 5531 5528 5525 5524 5522 5520 5520 5518 5518 5517 5517 5516 5515 5515 5513 5512 5511 5509 5506 5504 5503 5501 5499 5496 5494 5491
5529 5530 5531 5531 5531 5531 5530 5530 5530 5528 5526 5523 5521 5519 5516 5514 5512 5511 5510 5511 5512 5508 5508 5508 5508 5508 5507 5507 5506 5504 5502 5501 5499 5497 5495 5493 5490 5488
5519 5520 5521 5520 5520 5520 5519 5519 5518 5517 5517 5515 5513 5510 5508 5506 5505 5504 5503 5503 5503 5501 5501 5503 5501 5502 5502 5502 5501 5501 5499 5498 5496 5494 5492 5490 5488 5485
5509 5510 5510 5510 5511 5511 5511 5509 5508 5507 5507 5506 5505 5502 5501 5499 5497 5497 5496 5495 5495 5495 5495 5497 5496 5497 5498 5498 5498 5498 5496 5495 5494 5492 5491 5489 5486 5483
5501 5501 5502 5502 5503 5503 5503 5501 5500 5499 5499 5498 5498 5496 5495 5494 5492 5492 5491 5493 5494 5493 5490 5491 5492 5492 5493 5495 5495 5495 5494 5493 5492 5491 5489 5487 5484 5481
5494 5495 5495 5496 5496 5496 5496 5495 5494 5492 5492 5492 5492 5491 5491 5490 5489 5488 5488 5489 5489 5490 5488 5487 5488 5488 5491 5492 5492 5493 5492 5491 5491 5489 5488 5485 5483 5480
5488 5488 5489 5490 5491 5491 5491 5490 5488 5487 5487 5487 5487 5487 5487 5487 5486 5485 5485 5485 5486 5488 5486 5485 5486 5486 5487 5488 5490 5490 5490 5489 5488 5488 5486 5484 5481 5478
5483 5484 5484 5486 5486 5486 5486 5486 5485 5485 5484 5484 5484 5484 5484 5484 5484 5484 5484 5484 5484 5485 5485 5484 5485 5485 5485 5487 5488 5489 5489 5488 5487 5486 5484 5483 5481 5478
5479 5480 5482 5483 5483 5483 5482 5482 5482 5482 5481 5481 5480 5480 5479 5480 5481 5482 5483 5484 5485 5485 5485 5484 5484 5484 5483 5485 5486 5487 5487 5487 5486 5484 5483 5481 5479 5477
5477 5478 5479 5479 5480 5479 5479 5479 5478 5478 5477 5477 5477 5477 5477 5478 5479 5480 5482 5482 5484 5485 5485 5484 5484 5483 5484 5484 5484 5485 5485 5485 5485 5483 5481 5481 5480 5477
5475 5476 5476 5476 5477 5477 5476 5476 5475 5475 5475 5474 5475 5475 5476 5477 5478 5479 5479 5480 5482 5483 5484 5484 5484 5483 5484 5484 5485 5486 5485 5485 5484 5482 5480 5481 5481 5479
5473 5473 5473 5473 5473 5473 5474 5474 5474 5473 5472 5473 5473 5474 5475 5476 5477 5478 5478 5479 5480 5481 5482 5482 5482 5484 5485 5486 5484 5485 5485 5485 5484 5481 5479 5480 5482 5481
5472 5472 5471 5471 5472 5472 5472 5472 5472 5471 5471 5472 5472 5473 5474 5475 5476 5477 5478 5478 5479 5480 5480 5480 5480 5482 5484 5486 5488 5484 5484 5485 5483 5482 5481 5479 5480 5481
5471 5471 5471 5471 5472 5472 5472 5472 5471 5471 5471 5471 5472 5472 5473 5474 5475 5476 5476 5476 5477 5478 5480 5480 5480 5480 5481 5482 5483 5484 5483 5482 5482 5483 5482 5480 5479 5479
5473 5473 5473 5473 5473 5473 5472 5472 5472 5472 5471 5471 5472 5472 5472 5473 5474 5475 5475 5474 5476 5477 5479 5481 5480 5478 5478 5477 5480 5483 5484 5483 5482 5481 5481 5480 5480 5480
5476 5476 5476 5475 5475 5475 5474 5474 5473 5473 5473 5472 5472 5472 5472 5472 5473 5474 5475 5476 5477 5477 5478 5479 5479 5479 5479 5480 5482 5482 5483 5483 5482 5481 5479 5477 5478 5479
5480 5480 5479 5479 5478 5478 5477 5476 5476 5475 5474 5474 5474 5473 5473 5473 5473 5474 5474 5475 5476 5477 5478 5480 5481 5480 5480 5480 5480 5480 5481 5481 5481 5481 5480 5478 5476 5475